{"data":{"norad_id":68628,"epoch":"2026-05-25T00:50:44.640960Z","epoch_age_seconds":65797,"freshness":"FRESH","line1":"1 68628U 26074B   26145.03523890  .00008379  00000+0  35324-3 0  9993","line2":"2 68628  60.0224 267.1713 0021911 359.3827   0.7223 15.23903988  7249","mean_motion":15.23903988,"eccentricity":0.0021911,"inclination_deg":60.0224,"raan_deg":267.1713,"arg_perigee_deg":359.3827,"mean_anomaly_deg":0.7223,"bstar":0.00035324,"rev_number":724,"period_min":94.494142107331,"perigee_km":479.020807874,"apogee_km":509.13623072267,"semimajor_km":6872.2155192983,"source":"CELESTRAK","updated_at":"2026-05-25T13:38:07.986783Z"}}